[keps] orb07263.amsat
Ray Hoad
r.hoad at att.net
Thu Sep 20 20:24:37 PDT 2007
SB KEPS @ AMSAT $ORB07263.O
Orbital Elements 07263.OSCAR
HR AMSAT ORBITAL ELEMENTS FOR OSCAR SATELLITES
FROM WA5QGD FORT WORTH,TX September 20, 2007
Send Subscribe/unsubscribe to KEPS at
http://www.amsat.org/mailman/listinfo/keps
BID: ORB07263.O
TO ALL RADIO AMATEURS BT
Satellite: AO-07
Catalog number: 07530
Epoch time: 07262.63241350
Element set: 0981
Inclination: 101.5072 deg
RA of node: 297.8359 deg
Eccentricity: 0.0012192
Arg of perigee: 072.1210 deg
Mean anomaly: 288.1191 deg
Mean motion: 12.53572569 rev/day
Decay rate: -2.8e-07 rev/day^2
Epoch rev: 50295
Checksum: 286
Satellite: AO-10
Catalog number: 14129
Epoch time: 07262.28299293
Element set: 0429
Inclination: 026.1394 deg
RA of node: 255.6231 deg
Eccentricity: 0.6062362
Arg of perigee: 057.4151 deg
Mean anomaly: 347.2987 deg
Mean motion: 02.05868626 rev/day
Decay rate: -1.09e-06 rev/day^2
Epoch rev: 18250
Checksum: 311
Satellite: UO-11
Catalog number: 14781
Epoch time: 07262.59939313
Element set: 0476
Inclination: 098.1857 deg
RA of node: 287.1028 deg
Eccentricity: 0.0008380
Arg of perigee: 223.5958 deg
Mean anomaly: 136.4559 deg
Mean motion: 14.79579924 rev/day
Decay rate: 1.03e-06 rev/day^2
Epoch rev: 26369
Checksum: 348
Satellite: RS-15
Catalog number: 23439
Epoch time: 07262.97168946
Element set: 0116
Inclination: 064.8148 deg
RA of node: 213.6316 deg
Eccentricity: 0.0156222
Arg of perigee: 173.7415 deg
Mean anomaly: 186.5506 deg
Mean motion: 11.27552668 rev/day
Decay rate: -3.9e-07 rev/day^2
Epoch rev: 52438
Checksum: 321
Satellite: FO-29
Catalog number: 24278
Epoch time: 07262.93717785
Element set: 0598
Inclination: 098.5590 deg
RA of node: 209.9010 deg
Eccentricity: 0.0350534
Arg of perigee: 197.6639 deg
Mean anomaly: 161.2057 deg
Mean motion: 13.52931449 rev/day
Decay rate: -2.4e-07 rev/day^2
Epoch rev: 54771
Checksum: 343
Satellite: SO-33
Catalog number: 25509
Epoch time: 07262.84054579
Element set: 0025
Inclination: 031.4298 deg
RA of node: 050.5857 deg
Eccentricity: 0.0355231
Arg of perigee: 174.9639 deg
Mean anomaly: 185.4693 deg
Mean motion: 14.28177251 rev/day
Decay rate: 1.65e-06 rev/day^2
Epoch rev: 46479
Checksum: 334
Satellite: AO-40
Catalog number: 26609
Epoch time: 07263.09019277
Element set: 939
Inclination: 006.5368 deg
RA of node: 119.8770 deg
Eccentricity: 0.7953132
Arg of perigee: 005.4785 deg
Mean anomaly: 359.9468 deg
Mean motion: 01.25586908 rev/day
Decay rate: -1.12e-06 rev/day^2
Epoch rev: 3163
Checksum: 337
Satellite: VO-52
Catalog number: 28650
Epoch time: 07263.82399785
Element set: 732
Inclination: 097.8234 deg
RA of node: 332.3624 deg
Eccentricity: 0.0026164
Arg of perigee: 303.6819 deg
Mean anomaly: 056.1926 deg
Mean motion: 14.81357834 rev/day
Decay rate: 1.12e-06 rev/day^2
Epoch rev: 12857
Checksum: 324
Satellite: PO-63
Catalog number: 29712
Epoch time: 07263.85784870
Element set: 748
Inclination: 097.9132 deg
RA of node: 321.6550 deg
Eccentricity: 0.0014357
Arg of perigee: 173.9520 deg
Mean anomaly: 186.1861 deg
Mean motion: 14.79827547 rev/day
Decay rate: 3.49e-06 rev/day^2
Epoch rev: 3748
Checksum: 347
/EX
SB KEPS @ AMSAT $ORB07263.D
Orbital Elements 07263.MICROS
HR AMSAT ORBITAL ELEMENTS FOR THE MICROSATS
FROM WA5QGD FORT WORTH,TX September 20, 2007
Send Subscribe/unsubscribe to KEPS at
http://www.amsat.org/mailman/listinfo/keps
BID: ORB07263.D
TO ALL RADIO AMATEURS BT
Satellite: AO-16
Catalog number: 20439
Epoch time: 07262.50411609
Element set: 135
Inclination: 098.2038 deg
RA of node: 251.8978 deg
Eccentricity: 0.0009927
Arg of perigee: 267.2994 deg
Mean anomaly: 092.7059 deg
Mean motion: 14.31770159 rev/day
Decay rate: -5.0e-08 rev/day^2
Epoch rev: 92204
Checksum: 318
Satellite: LO-19
Catalog number: 20442
Epoch time: 07262.52678615
Element set: 0062
Inclination: 098.1866 deg
RA of node: 261.1284 deg
Eccentricity: 0.0010845
Arg of perigee: 264.6039 deg
Mean anomaly: 095.3916 deg
Mean motion: 14.32010226 rev/day
Decay rate: 2.1e-07 rev/day^2
Epoch rev: 92219
Checksum: 288
Satellite: AO-27
Catalog number: 22825
Epoch time: 07263.47996511
Element set: 783
Inclination: 098.3426 deg
RA of node: 229.2580 deg
Eccentricity: 0.0008219
Arg of perigee: 347.8432 deg
Mean anomaly: 012.2547 deg
Mean motion: 14.29217982 rev/day
Decay rate: 9.2e-07 rev/day^2
Epoch rev: 72910
Checksum: 324
Satellite: IO-26
Catalog number: 22826
Epoch time: 07263.79085611
Element set: 482
Inclination: 098.3358 deg
RA of node: 230.5867 deg
Eccentricity: 0.0008906
Arg of perigee: 343.2640 deg
Mean anomaly: 016.8250 deg
Mean motion: 14.29464476 rev/day
Decay rate: -.00000000 rev/day^2
Epoch rev: 72923
Checksum: 305
Satellite: PO-28
Catalog number: 22829
Epoch time: 07262.86049090
Element set: 0758
Inclination: 098.3249 deg
RA of node: 230.8485 deg
Eccentricity: 0.0009070
Arg of perigee: 317.3078 deg
Mean anomaly: 042.7386 deg
Mean motion: 14.30166378 rev/day
Decay rate: 4.6e-07 rev/day^2
Epoch rev: 72934
Checksum: 331
Satellite: GO-32
Catalog number: 25397
Epoch time: 07262.65379943
Element set: 0407
Inclination: 098.4054 deg
RA of node: 305.6908 deg
Eccentricity: 0.0000811
Arg of perigee: 005.7481 deg
Mean anomaly: 354.3717 deg
Mean motion: 14.23131204 rev/day
Decay rate: 5.1e-07 rev/day^2
Epoch rev: 47759
Checksum: 301
Satellite: MO-46
Catalog number: 26548
Epoch time: 07262.44708764
Element set: 900
Inclination: 064.5551 deg
RA of node: 251.0509 deg
Eccentricity: 0.0004001
Arg of perigee: 186.8207 deg
Mean anomaly: 173.2845 deg
Mean motion: 14.83173524 rev/day
Decay rate: -5.0e-08 rev/day^2
Epoch rev: 37751
Checksum: 295
Satellite: NO-44
Catalog number: 26931
Epoch time: 07263.52171529
Element set: 689
Inclination: 067.0510 deg
RA of node: 261.9096 deg
Eccentricity: 0.0006735
Arg of perigee: 251.7074 deg
Mean anomaly: 108.3296 deg
Mean motion: 14.29494690 rev/day
Decay rate: -1.46e-06 rev/day^2
Epoch rev: 31172
Checksum: 314
Satellite: SO-50
Catalog number: 27607
Epoch time: 07263.82750327
Element set: 412
Inclination: 064.5572 deg
RA of node: 154.6463 deg
Eccentricity: 0.0065625
Arg of perigee: 335.6155 deg
Mean anomaly: 024.1837 deg
Mean motion: 14.71286411 rev/day
Decay rate: -9.4e-07 rev/day^2
Epoch rev: 25519
Checksum: 303
Satellite: CO-55
Catalog number: 27844
Epoch time: 07263.54545093
Element set: 125
Inclination: 098.7206 deg
RA of node: 270.5513 deg
Eccentricity: 0.0009718
Arg of perigee: 171.7205 deg
Mean anomaly: 188.4135 deg
Mean motion: 14.20532000 rev/day
Decay rate: 3.2e-07 rev/day^2
Epoch rev: 21901
Checksum: 275
Satellite: CO-57
Catalog number: 27848
Epoch time: 07263.57826405
Element set: 83
Inclination: 098.7196 deg
RA of node: 269.7463 deg
Eccentricity: 0.0009530
Arg of perigee: 175.9486 deg
Mean anomaly: 184.1776 deg
Mean motion: 14.20348321 rev/day
Decay rate: 1.0e-07 rev/day^2
Epoch rev: 21899
Checksum: 344
Satellite: AO-51
Catalog number: 28375
Epoch time: 07262.54371519
Element set: 915
Inclination: 098.1050 deg
RA of node: 296.9648 deg
Eccentricity: 0.0083098
Arg of perigee: 257.0570 deg
Mean anomaly: 102.1333 deg
Mean motion: 14.40579917 rev/day
Decay rate: 6.0e-08 rev/day^2
Epoch rev: 16929
Checksum: 324
Satellite: CO-56
Catalog number: 28941
Epoch time: 07262.89721494
Element set: 0576
Inclination: 098.1187 deg
RA of node: 334.7390 deg
Eccentricity: 0.0212290
Arg of perigee: 296.8637 deg
Mean anomaly: 061.1011 deg
Mean motion: 15.43251507 rev/day
Decay rate: 7.361e-05 rev/day^2
Epoch rev: 08802
Checksum: 321
Satellite: HO-59
Catalog number: 29484
Epoch time: 07263.75500079
Element set: 698
Inclination: 098.2722 deg
RA of node: 328.5122 deg
Eccentricity: 0.0181714
Arg of perigee: 281.2721 deg
Mean anomaly: 076.7979 deg
Mean motion: 15.58047633 rev/day
Decay rate: 1.8393e-04 rev/day^2
Epoch rev: 5592
Checksum: 353
Satellite: NO-61
Catalog number: 29664
Epoch time: 07263.54105441
Element set: 489
Inclination: 051.6315 deg
RA of node: 307.3978 deg
Eccentricity: 0.0011671
Arg of perigee: 008.4763 deg
Mean anomaly: 351.6439 deg
Mean motion: 15.98637582 rev/day
Decay rate: 3.9087e-04 rev/day^2
Epoch rev: 4337
Checksum: 336
Satellite: CP4
Catalog number: 31122
Epoch time: 07263.63901640
Element set: 140
Inclination: 098.0782 deg
RA of node: 333.7968 deg
Eccentricity: 0.0087023
Arg of perigee: 089.4298 deg
Mean anomaly: 271.6862 deg
Mean motion: 14.55034298 rev/day
Decay rate: 5.51e-06 rev/day^2
Epoch rev: 2273
Checksum: 305
Satellite: CP3
Catalog number: 31128
Epoch time: 07262.67040574
Element set: 0134
Inclination: 098.0746 deg
RA of node: 332.0861 deg
Eccentricity: 0.0104301
Arg of perigee: 094.0823 deg
Mean anomaly: 267.2316 deg
Mean motion: 14.51865227 rev/day
Decay rate: -4.6e-07 rev/day^2
Epoch rev: 02253
Checksum: 269
Satellite: LIBERT
Catalog number: 31129
Epoch time: 07263.83258456
Element set: 379
Inclination: 098.0742 deg
RA of node: 333.2152 deg
Eccentricity: 0.0103316
Arg of perigee: 089.9878 deg
Mean anomaly: 271.3058 deg
Mean motion: 14.51958364 rev/day
Decay rate: 3.39e-06 rev/day^2
Epoch rev: 2268
Checksum: 320
/EX
SB KEPS @ AMSAT $ORB07263.W
Orbital Elements 07263.WEATHER
HR AMSAT ORBITAL ELEMENTS FOR WEATHER SATELLITES
FROM WA5QGD FORT WORTH,TX September 20, 2007
Send Subscribe/unsubscribe to KEPS at
http://www.amsat.org/mailman/listinfo/keps
BID: ORB07263.W
TO ALL RADIO AMATEURS BT
Satellite: NOAA-10
Catalog number: 16969
Epoch time: 07262.79865934
Element set: 0817
Inclination: 098.7445 deg
RA of node: 280.0312 deg
Eccentricity: 0.0011563
Arg of perigee: 251.4070 deg
Mean anomaly: 108.5868 deg
Mean motion: 14.27334152 rev/day
Decay rate: 2.3e-07 rev/day^2
Epoch rev: 09272
Checksum: 308
Satellite: NOAA-11
Catalog number: 19531
Epoch time: 07262.82361247
Element set: 0845
Inclination: 098.8097 deg
RA of node: 350.8036 deg
Eccentricity: 0.0012217
Arg of perigee: 118.9480 deg
Mean anomaly: 241.2928 deg
Mean motion: 14.14850340 rev/day
Decay rate: -2.00e-06 rev/day^2
Epoch rev: 97953
Checksum: 302
